GFSNIL_con_3kmhel_060.txt.gz
Helicity
-55 -83 -105 -155 -170 -184 -180 -245 -215 -176 -94 -36 -62 13 135 157 193 213 198 192 215 216
-34 -37 -76 -84 -100 -133 -166 -166 -132 3 25 2 71 102 113 126 178 181 193 193 220 242
-17 -35 -58 -100 -113 -96 -88 -46 -14 2 43 54 21 27 132 160 194 178 197 230 246 257
96 88 69 23 -8 19 27 34 66 90 45 25 79 126 126 156 192 195 216 247 263 267
80 62 100 137 106 120 77 109 98 129 175 184 226 157 163 170 198 198 224 264 313 323
181 140 110 178 138 172 171 163 243 130 161 139 186 168 154 214 253 216 242 313 326 354
263 223 224 290 256 246 261 212 136 100 99 158 178 186 216 249 251 204 264 281 320 378
376 268 221 242 282 284 264 240 170 137 184 232 230 242 219 237 237 260 287 315 368 391
300 264 240 269 292 269 244 202 179 272 315 262 267 257 258 281 282 318 340 389 460 518
274 258 249 262 284 275 222 279 316 294 283 235 265 240 267 317 351 379 412 454 486 518
321 283 289 271 262 296 347 356 322 280 261 287 286 301 356 443 482 498 464 457 479 491
345 276 316 324 379 360 336 300 284 290 318 328 341 404 459 544 516 532 546 543 517 488
327 328 307 319 303 292 303 355 365 408 404 407 442 438 478 477 501 520 511 524 512 484
275 258 251 283 282 307 364 445 485 537 558 596 529 483 446 430 428 426 447 458 464 423

GFSNIL_con_3kmhel_063.txt.gz
Helicity
3 -5 -54 -32 -59 -20 -6 39 80 38 3 -11 9 16 16 34 51 80 193 166 252 175
-33 -43 -51 -42 -65 -61 -87 -27 -72 -10 -23 -23 -21 -3 15 31 26 75 143 171 116 143
17 -13 -29 -73 -51 -26 -50 -58 -39 -33 -27 -24 -0 9 28 28 60 91 145 143 129 146
63 42 25 6 2 7 -16 -35 -56 -48 -35 -4 55 75 73 49 54 73 96 158 173 164
114 94 60 29 27 75 72 77 72 33 19 68 117 129 142 110 134 177 183 191 143 165
178 171 158 135 103 79 61 42 64 78 104 102 147 187 153 183 203 193 172 202 163 242
236 235 193 151 177 176 185 127 119 127 123 133 166 209 206 208 191 290 181 238 273 276
284 235 209 193 210 221 187 171 189 159 122 137 125 146 204 215 204 242 258 260 261 267
175 224 256 230 217 208 184 171 179 170 150 147 185 184 244 230 248 272 280 304 297 326
164 198 203 186 154 177 201 176 172 173 172 226 241 250 241 267 285 294 313 356 429 499
196 181 186 184 170 154 158 173 181 189 260 248 254 239 263 298 326 358 369 415 463 560
165 172 184 172 145 224 246 260 304 322 284 269 250 249 336 444 453 494 543 534 562 590
172 222 288 320 275 268 289 325 311 320 285 266 296 338 421 469 540 636 647 670 523 473
222 254 269 323 295 314 333 358 380 408 403 383 376 407 420 427 504 551 531 502 463 428

GFSNIL_con_3kmhel_069.txt.gz
Helicity
66 10 42 57 100 116 164 132 73 86 55 44 81 80 107 174 75 91 103 78 57 64
74 102 118 106 93 52 97 124 122 141 57 65 95 31 30 11 71 110 90 49 60 73
52 89 84 109 164 159 97 72 43 105 112 141 82 -16 -39 -72 11 49 68 104 80 66
65 73 54 53 78 87 153 134 143 154 163 140 113 98 84 73 57 28 59 68 91 106
63 45 72 72 65 70 89 100 112 149 170 178 183 150 127 93 107 108 86 94 130 193
103 88 90 77 72 82 80 78 76 85 102 104 112 127 132 145 150 175 160 127 164 290
151 150 147 133 118 118 100 108 114 143 131 91 93 104 102 133 140 139 156 188 241 341
198 147 122 145 165 164 165 166 150 154 158 160 182 192 176 167 170 192 211 256 330 323
164 171 168 182 191 186 178 206 231 228 223 219 223 207 225 205 219 238 257 315 244 244
147 145 148 143 165 173 198 191 204 221 239 250 256 272 295 280 241 265 321 400 380 331
130 143 151 148 132 140 187 207 219 218 234 239 243 246 253 270 267 256 268 301 356 412
178 169 188 223 205 186 207 223 224 221 212 209 186 267 280 308 315 376 465 481 493 495
115 167 189 205 225 229 242 223 264 387 454 468 315 319 250 275 431 492 508 514 515 479
169 143 164 169 189 206 348 545 605 581 541 452 406 367 364 429 459 480 526 514 534 534

GFSNIL_con_3kmhel_072.txt.gz
Helicity
51 44 109 158 135 156 144 156 147 197 132 128 197 149 149 177 154 196 217 174 166 61
98 82 118 131 119 151 93 110 99 81 98 33 112 84 116 136 88 164 169 174 174 159
99 136 134 81 144 158 151 160 142 164 170 228 150 51 39 73 80 112 143 180 173 147
93 104 121 138 139 144 158 146 144 135 186 158 155 139 128 146 200 187 155 151 118 125
108 100 121 157 197 176 163 193 195 154 128 137 105 122 155 171 188 173 127 100 170 166
183 145 131 144 167 178 157 150 130 147 180 188 179 165 156 150 141 149 151 152 184 180
242 217 183 159 145 135 145 171 178 189 158 177 167 164 146 160 186 189 161 167 202 214
245 234 212 181 172 175 168 192 198 210 211 200 195 229 239 254 265 264 255 243 240 252
200 249 252 246 240 233 223 209 213 224 238 254 254 261 284 281 270 264 267 263 289 310
178 194 244 240 232 235 254 254 250 236 255 261 262 283 291 317 319 290 289 285 273 270
180 157 169 205 205 187 183 188 192 202 219 212 202 227 253 287 305 289 273 260 259 314
193 167 164 186 212 207 195 160 159 157 159 180 164 184 186 274 282 254 412 471 449 400
128 188 158 168 197 182 209 207 208 237 453 555 417 477 357 331 420 478 513 534 522 470
340 361 301 172 228 195 239 470 566 602 555 518 466 496 463 434 416 423 515 498 534 506

GFSNIL_con_3kmhel_075.txt.gz
Helicity
166 112 84 112 97 118 135 128 135 180 228 166 135 110 135 175 211 286 280 123 37 127
204 196 104 82 66 81 104 99 92 94 131 177 53 76 174 178 210 214 277 187 107 175
193 202 174 126 171 167 136 101 67 98 126 79 68 105 43 44 133 181 207 230 212 218
139 151 154 226 195 184 169 193 222 189 188 197 129 113 154 145 164 110 127 150 209 240
158 141 152 169 222 205 198 205 220 205 217 225 195 180 177 173 186 177 147 173 235 190
160 171 167 154 132 166 187 214 198 213 198 218 226 175 152 160 183 176 190 217 290 265
215 189 173 157 145 159 184 203 248 247 238 217 200 178 160 174 198 191 193 222 271 280
259 233 201 196 192 198 214 215 204 214 220 212 221 219 213 222 233 228 217 228 260 277
291 300 277 236 220 216 208 220 222 220 216 206 216 216 266 265 245 248 256 263 269 272
257 278 309 314 277 255 251 239 222 194 218 225 235 246 238 256 245 234 241 246 247 263
166 200 291 310 299 303 298 289 278 269 233 210 190 201 203 252 273 266 273 291 306 321
236 189 169 255 230 297 339 323 303 282 287 275 212 232 192 229 235 233 228 394 448 408
195 200 216 337 280 169 315 309 316 325 414 468 318 390 310 262 306 330 439 470 457 429
119 148 253 279 326 287 290 339 477 501 502 479 490 428 457 367 353 404 532 548 563 577

GFSNIL_con_3kmhel_078.txt.gz
Helicity
69 28 34 68 37 73 51 13 36 44 155 142 131 132 105 90 145 166 163 173 196 209
110 95 50 14 33 56 6 3 10 33 98 93 146 123 123 136 138 144 150 145 151 211
146 110 73 51 50 49 38 74 108 48 68 62 102 105 63 -9 12 93 191 196 226 216
151 126 93 101 81 71 70 91 97 81 82 134 131 106 119 126 116 93 77 129 140 135
162 170 163 104 92 99 97 95 118 87 84 93 130 132 129 128 137 145 168 242 259 224
137 178 169 150 127 105 103 93 89 111 120 107 111 129 133 124 128 170 169 203 248 276
146 155 152 150 166 176 138 124 128 123 124 134 135 114 121 153 167 158 190 200 203 228
157 159 157 164 177 197 207 186 160 149 155 151 154 184 182 170 167 171 172 187 225 256
161 163 163 166 162 175 184 205 201 201 208 207 223 213 241 245 229 215 203 185 194 212
97 142 184 207 212 213 221 206 213 220 229 243 231 240 265 258 228 206 194 193 191 190
220 210 189 134 193 225 258 277 276 255 246 227 212 234 229 260 253 229 212 217 213 228
207 185 166 209 267 203 174 249 297 307 283 261 257 284 229 310 285 254 231 240 243 260
206 199 186 123 117 162 203 226 229 400 538 554 473 495 409 337 260 282 322 410 501 536
227 175 183 182 161 135 159 237 377 528 537 514 535 428 397 417 315 248 394 535 570 577

GFSNIL_con_3kmhel_084.txt.gz
Helicity
72 67 80 79 98 237 294 193 212 227 184 132 132 130 86 127 95 146 161 143 170 206
77 56 55 58 79 113 102 237 211 227 292 180 132 83 76 87 124 235 173 154 153 184
76 54 41 28 58 57 74 108 173 175 133 119 103 129 32 60 187 255 238 200 146 184
35 52 64 32 8 43 67 75 74 83 112 123 113 98 82 67 108 172 247 203 160 157
63 46 23 17 25 37 43 65 82 76 43 40 82 81 107 150 148 133 163 172 178 73
54 52 40 9 11 41 57 54 59 70 55 61 73 82 103 98 130 122 114 141 159 164
18 34 54 42 30 35 43 55 60 64 58 60 63 81 92 113 113 112 121 137 147 150
40 27 34 36 45 57 65 60 66 77 79 85 96 101 112 125 124 134 152 176 183 184
69 62 60 60 59 58 56 63 82 90 91 89 95 95 120 140 143 136 127 124 151 178
155 96 83 67 84 97 93 106 115 127 136 130 143 140 124 161 170 159 156 142 139 150
175 169 156 128 153 131 85 56 81 102 117 117 274 268 259 227 172 181 170 186 207 225
197 214 220 206 207 207 184 200 226 254 273 263 298 299 253 152 107 118 118 139 301 243
216 247 207 182 175 168 176 218 243 325 389 441 390 430 343 215 148 170 226 265 294 329
254 250 245 259 285 265 244 256 263 260 275 278 312 308 337 291 192 165 246 309 353 403

GFSNIL_con_3kmhel_087.txt.gz
Helicity
74 60 43 64 100 181 211 157 190 163 158 199 213 250 202 142 155 193 158 49 137 149
85 67 45 46 68 164 160 160 164 157 177 99 149 174 143 163 196 227 172 34 87 119
63 62 33 28 32 50 165 210 238 183 159 172 179 146 149 139 128 101 19 108 107 172
54 40 33 1 -6 35 55 75 87 149 198 189 214 134 152 139 76 42 37 72 95 148
59 49 17 -11 -19 -7 4 5 32 72 75 119 159 134 142 71 41 50 65 89 134 121
27 36 28 16 -5 -20 -13 -6 7 16 19 39 53 90 82 111 85 109 66 87 114 112
15 11 14 15 14 10 8 9 12 12 8 5 15 23 70 86 121 107 101 112 137 123
39 27 11 1 -3 0 11 13 18 23 24 28 30 38 50 65 93 102 92 108 103 80
71 49 27 21 22 17 13 11 18 21 23 30 47 44 60 68 77 86 87 75 69 71
183 158 135 86 61 51 53 65 67 63 73 92 155 191 123 56 78 91 99 103 112 122
205 211 194 182 180 181 152 162 164 185 179 265 250 229 207 168 134 139 132 192 227 223
203 214 204 198 190 172 174 210 231 230 252 292 285 250 185 110 108 180 267 247 260 240
221 211 206 203 204 187 187 206 222 274 299 313 321 355 297 210 227 289 336 379 359 427
241 247 244 252 277 277 268 232 213 224 257 280 299 282 286 246 211 225 270 311 324 321